Theta_e
318 319 317 316 312 310 309 331 319 329 329 317 320 318 318 312 317 319 317 319 316 314 314 313 313 312 317 320 320 316 318 314 309 311 317 319 317 313 314 306 306 310 309 307
318 318 317 315 312 310 326 327 322 328 326 314 315 320 317 319 317 318 317 315 318 318 315 312 314 315 321 319 319 319 320 313 307 309 312 316 314 315 315 314 312 308 306 309
318 318 317 314 312 311 320 326 316 320 322 324 320 317 316 315 319 318 319 318 319 317 315 317 314 314 318 319 319 324 319 313 310 306 309 313 312 314 314 313 308 308 307 309
318 317 317 315 312 311 322 328 323 322 314 317 318 320 318 314 314 319 320 317 317 316 313 314 314 316 317 318 318 317 317 310 312 312 313 313 312 312 312 311 312 309 311 311
318 317 317 316 312 310 326 323 322 326 322 321 318 309 316 315 316 317 316 316 317 317 314 315 313 315 315 314 317 316 318 311 312 309 312 312 310 312 313 313 313 313 313 313
318 317 317 316 313 314 323 324 327 324 312 319 317 319 318 316 318 318 319 318 317 316 317 319 320 320 318 317 315 315 314 312 310 306 311 310 306 310 313 314 315 314 310 320
318 318 318 317 315 312 323 322 325 320 316 316 317 317 316 315 317 317 318 319 317 321 325 322 321 319 318 318 317 317 313 313 311 306 309 301 312 319 318 315 316 317 319 325
318 319 319 318 316 313 322 323 321 321 318 317 315 314 314 316 318 317 316 319 322 325 320 314 313 313 314 315 315 315 316 312 307 304 304 308 310 315 314 314 315 325 322 326
317 319 320 319 317 314 321 323 323 322 316 316 317 315 315 314 316 317 318 322 324 321 316 313 308 306 310 308 311 316 315 315 310 308 303 301 314 317 319 317 307 326 326 326
315 317 319 319 318 315 317 323 324 321 315 320 318 315 315 317 316 314 318 318 318 320 313 310 309 308 313 306 307 310 311 311 307 307 305 308 319 319 320 305 315 328 328 327
314 316 318 318 317 316 316 324 324 318 315 317 319 318 316 317 316 312 317 315 316 314 311 310 310 309 312 310 312 311 310 309 308 309 306 303 321 319 313 323 326 325 326 326
314 315 317 318 317 316 314 322 325 323 317 318 322 321 322 320 320 317 317 315 318 318 315 317 314 312 312 311 306 317 308 312 310 313 312 321 321 321 325 325 323 323 322 323
314 315 317 318 317 315 314 320 322 321 318 318 319 318 322 324 322 324 315 319 319 318 321 316 315 310 314 308 310 312 315 318 312 312 314 315 317 319 320 321 322 323 322 321
315 315 317 317 317 315 313 320 322 320 318 312 317 322 320 324 323 321 322 320 321 319 319 314 312 310 317 311 312 311 314 315 313 313 315 316 317 318 319 320 321 321 321 321
315 316 317 317 317 315 316 322 326 324 316 310 312 317 320 320 319 318 319 319 318 317 315 313 311 315 314 314 313 310 316 313 309 309 316 316 317 320 321 319 319 320 320 321
315 316 316 316 316 314 320 317 323 327 321 312 308 319 317 317 318 319 319 318 318 317 315 314 316 318 316 308 307 315 317 316 318 315 319 319 320 320 320 319 321 322 322 322
314 315 315 315 314 317 317 314 317 313 320 313 308 311 316 317 318 318 317 320 319 317 315 314 315 315 315 311 307 315 316 318 319 320 319 318 319 316 321 322 322 322 323 323
314 315 314 314 313 312 315 320 311 312 315 314 307 309 312 318 315 314 319 315 316 317 315 316 313 315 314 307 314 315 318 317 318 318 319 318 321 322 322 323 322 321 320 321
314 314 314 316 313 317 316 314 313 319 316 309 310 306 307 317 314 319 317 318 309 316 312 312 312 310 307 313 317 314 317 315 316 318 318 319 318 320 321 321 320 319 320 322
314 314 314 312 317 313 314 317 312 311 312 312 307 313 307 313 316 312 312 315 309 308 310 315 309 310 317 319 320 322 321 322 319 316 315 318 319 320 320 320 321 321 320 320
314 311 311 319 314 318 315 307 305 307 304 309 310 311 308 314 307 309 313 311 310 302 308 307 305 305 314 320 320 321 321 323 323 322 322 322 321 320 320 320 320 320 321 321
309 311 314 320 315 310 305 303 306 303 303 311 309 309 312 314 318 310 311 306 308 302 314 305 303 314 321 320 319 320 322 323 322 323 322 322 322 322 321 320 320 321 322 324
315 313 308 309 308 296 299 298 301 303 308 311 311 310 312 315 314 309 309 304 302 312 304 301 310 319 321 322 322 322 324 323 322 322 322 323 322 322 321 320 321 323 322 325
307 305 294 303 300 303 305 306 305 309 312 310 310 315 313 318 311 311 304 307 309 300 298 301 316 319 321 323 322 321 320 321 321 321 322 320 320 320 321 322 323 322 321 321
305 301 297 302 307 307 310 311 312 314 314 313 311 312 312 311 307 310 308 303 300 301 303 313 319 320 321 321 321 320 321 321 321 321 319 321 320 320 321 323 323 323 322 320
301 302 303 308 306 305 307 309 309 311 312 314 312 309 306 305 306 304 303 301 301 308 315 315 319 320 321 322 322 322 323 322 322 321 321 321 319 320 321 321 320 318 317 318
299 298 308 308 307 306 306 308 308 313 311 305 309 303 303 308 306 302 308 306 312 316 314 317 322 321 322 323 323 324 324 323 322 323 323 322 321 322 320 316 316 316 316 317
Wind_Speed
23 25 26 26 25 25 3 8 4 9 7 8 9 4 2 2 8 6 3 7 1 1 3 8 4 4 6 2 5 11 1 11 14 13 3 7 10 14 16 9 8 5 17 8
23 27 27 26 23 18 8 7 5 6 8 8 9 5 8 3 6 1 2 3 5 3 0 4 7 1 9 3 7 11 12 9 13 15 16 16 14 15 13 17 16 11 15 2
25 27 28 28 26 15 6 7 6 6 8 9 14 8 7 9 1 4 2 2 3 3 4 3 2 6 7 2 6 6 6 14 17 15 10 9 14 17 9 13 13 12 9 11
24 26 27 30 31 24 5 4 4 7 6 7 5 5 3 3 7 2 3 3 4 5 5 5 7 4 6 8 11 6 9 15 16 18 19 17 18 16 18 20 19 16 21 16
23 25 26 28 34 36 3 8 7 1 4 4 7 6 5 6 5 6 5 9 4 6 8 8 11 9 7 7 5 7 9 13 12 18 19 18 20 20 16 19 20 20 17 21
21 23 23 25 28 27 6 7 1 6 5 5 8 2 7 2 3 4 5 6 7 10 8 7 11 12 12 12 10 11 12 12 12 15 15 15 16 17 15 14 17 18 16 7
18 19 20 22 24 21 10 6 8 6 2 6 8 5 2 5 3 9 2 4 7 9 8 10 15 16 16 14 13 12 12 11 9 13 14 15 10 8 7 11 15 15 9 10
15 17 18 19 21 23 9 7 7 5 5 5 4 2 4 4 5 9 8 6 4 7 9 10 12 12 10 12 10 10 9 9 10 12 12 13 12 7 6 10 10 14 9 8
14 16 16 17 18 21 11 7 7 6 7 6 6 7 3 9 5 4 8 2 6 9 8 9 10 10 8 2 9 6 9 8 10 11 12 10 10 8 5 4 9 10 7 5
13 15 16 15 17 18 9 4 10 6 7 6 6 6 9 4 5 7 0 2 6 7 8 10 10 11 4 6 11 7 9 7 12 11 11 11 9 4 3 8 6 6 8 5
12 13 15 13 15 16 11 3 7 7 6 8 2 1 5 5 6 7 8 7 9 7 7 9 9 6 6 5 10 8 8 9 10 11 11 14 8 6 5 6 3 6 5 6
10 11 13 12 12 14 13 4 5 5 6 8 8 10 11 10 10 8 5 7 6 6 6 2 6 4 7 7 11 6 8 8 9 9 7 5 3 5 5 7 6 2 5 8
9 10 11 10 9 11 10 7 5 7 7 9 8 5 4 3 8 8 9 4 5 5 5 7 5 5 8 9 8 8 7 7 7 12 7 4 6 6 8 8 10 10 10 12
8 9 10 10 8 9 10 7 5 6 6 6 6 6 7 2 7 8 10 11 6 8 6 8 7 8 2 8 8 8 9 2 8 10 12 14 11 5 6 12 11 11 12 14
8 8 8 9 9 10 10 7 2 3 7 7 9 11 5 5 5 6 8 11 9 7 7 6 7 7 5 7 10 9 8 8 9 8 13 11 11 11 10 15 9 13 14 13
7 8 8 8 8 9 8 6 4 2 5 6 6 6 7 4 6 8 9 9 9 9 6 6 6 7 2 7 9 9 7 4 7 9 10 13 13 13 12 13 13 10 14 16
7 7 7 8 7 8 5 8 6 7 7 5 6 4 8 4 5 5 6 9 6 7 8 9 9 7 5 10 12 12 10 9 8 7 6 9 5 6 9 11 13 14 16 16
7 7 7 7 8 11 8 2 6 6 6 4 5 4 3 7 7 7 4 5 6 6 8 9 7 3 4 7 11 8 5 4 6 4 7 8 10 10 13 13 15 17 17 17
6 6 7 5 5 5 6 6 5 5 6 6 5 8 2 3 7 3 5 5 6 5 7 10 6 9 7 10 6 6 4 6 10 8 11 11 11 13 15 16 17 18 17 17
5 5 6 5 5 11 5 4 4 4 2 5 6 7 6 3 2 5 6 3 4 3 5 1 6 12 13 9 1 6 7 8 5 9 9 12 14 15 17 18 17 16 16 15
4 4 1 5 4 5 4 4 4 4 5 5 6 9 8 5 7 5 1 3 3 4 5 4 5 6 5 7 4 4 4 4 7 10 11 13 16 17 18 17 16 16 17 17
2 5 4 3 5 3 5 4 4 5 5 4 5 4 7 3 2 5 2 5 2 4 2 4 5 6 6 6 3 4 5 7 10 12 14 16 18 19 15 14 13 16 14 14
5 4 3 4 3 2 7 9 6 5 4 5 6 7 3 3 5 2 3 6 5 1 5 4 1 6 4 3 4 6 7 10 12 14 15 18 16 14 12 13 15 19 17 17
3 5 3 6 6 7 8 8 3 4 2 4 3 3 2 0 4 3 5 4 4 5 4 7 6 4 3 1 5 8 12 14 15 15 16 13 12 12 14 14 16 14 16 14
3 3 5 8 7 4 3 2 2 2 4 5 5 4 5 3 5 5 3 4 5 5 3 4 5 4 3 4 7 10 11 12 13 14 13 13 14 14 16 17 16 16 15 14
2 5 8 7 7 7 8 6 6 5 6 4 5 3 5 7 4 5 7 5 6 2 3 4 6 4 5 6 8 10 10 11 13 10 11 12 14 15 16 17 15 14 14 14
5 5 10 10 8 5 4 3 1 4 6 8 0 6 8 4 3 6 5 3 4 2 4 4 5 4 6 7 10 10 11 11 11 12 12 14 12 14 15 13 14 15 14 12
Wind_Direction
340 341 341 341 342 336 247 274 238 143 189 225 236 230 80 320 134 188 185 307 150 204 101 208 249 284 73 26 312 279 339 302 291 280 161 282 282 287 283 269 245 291 324 99
345 345 341 342 346 351 313 259 99 167 224 248 207 103 148 330 179 338 201 135 322 316 190 283 279 79 89 325 296 4 354 264 269 247 242 13 323 269 251 275 281 256 237 33
349 347 342 342 342 347 283 278 183 156 215 275 289 166 174 145 30 116 2 106 276 245 229 176 310 231 139 246 300 31 294 274 281 290 303 213 239 278 289 269 281 286 184 214
350 350 346 343 340 340 262 251 37 5 195 199 275 300 6 190 175 151 288 168 311 319 294 254 249 245 279 203 149 246 257 274 284 287 288 297 292 284 288 284 294 292 308 292
352 353 350 349 343 335 269 327 329 243 345 179 247 148 205 300 119 294 170 275 115 300 292 314 323 331 286 275 277 249 260 278 283 279 281 279 275 272 266 268 269 273 275 281
351 354 352 353 355 340 17 359 309 280 127 227 238 61 58 59 312 150 324 334 295 260 19 3 314 303 293 283 271 276 287 284 281 282 296 281 271 259 266 269 272 281 270 70
349 350 352 355 354 3 318 16 292 280 145 264 5 12 334 287 346 310 0 300 279 36 329 305 266 251 255 261 262 262 249 264 274 272 279 269 270 36 323 297 306 302 321 100
342 341 349 355 354 353 322 14 336 332 306 353 188 273 314 286 212 239 260 288 352 312 283 275 254 243 228 243 251 256 253 258 266 269 259 267 255 62 1 345 316 13 315 96
342 337 349 352 355 352 318 41 336 304 305 74 353 306 322 294 281 223 217 119 298 293 268 266 251 266 313 182 183 226 265 229 264 258 279 285 77 61 23 347 249 48 19 32
337 336 345 351 354 350 324 16 360 287 302 82 334 317 342 336 279 279 144 251 268 220 259 254 258 263 304 261 266 207 216 241 248 249 253 261 69 2 338 256 54 36 359 11
331 333 338 345 352 351 339 20 13 339 318 310 4 284 287 255 240 281 66 259 196 267 257 266 270 228 266 253 272 292 264 259 251 231 249 258 22 277 316 48 97 5 21 23
323 325 332 342 348 347 339 304 14 338 266 335 321 291 295 282 292 302 281 319 307 347 294 315 304 273 252 263 286 118 254 275 325 317 28 141 12 355 30 331 311 267 320 312
311 311 323 332 338 343 342 315 332 294 261 269 218 187 126 205 229 265 282 214 323 268 327 315 308 300 302 279 271 297 248 213 261 302 293 356 358 317 304 291 291 299 300 308
293 302 314 324 327 326 321 309 349 281 294 278 116 123 196 32 269 257 260 285 270 268 277 261 259 271 137 279 317 306 301 331 273 282 274 281 276 298 356 320 308 300 297 293
295 302 306 316 318 311 293 269 302 318 319 329 321 302 243 174 179 253 251 250 249 247 225 233 246 256 283 269 267 273 269 315 256 289 343 328 308 303 310 290 294 293 280 289
288 294 302 309 307 310 281 210 155 295 348 284 288 87 192 202 245 249 236 228 230 250 261 260 258 266 246 278 277 288 333 233 228 279 315 310 300 300 288 274 274 308 306 298
290 292 295 296 294 290 298 358 18 343 306 257 276 246 136 217 244 206 209 210 227 237 240 244 261 273 200 260 267 283 297 292 298 341 290 274 284 295 299 304 299 292 287 290
288 285 289 282 282 274 251 139 207 275 270 262 269 264 206 174 232 189 185 214 224 228 254 267 251 186 247 275 281 322 337 306 265 271 298 275 291 292 283 299 305 297 291 291
281 286 282 259 225 234 67 107 157 230 295 298 230 276 85 127 256 296 171 254 218 250 219 236 272 242 205 225 220 251 223 278 304 301 279 295 291 297 306 301 299 292 292 300
264 253 217 213 65 128 158 169 197 214 220 240 260 275 269 241 186 227 144 240 256 240 236 282 241 259 260 202 267 330 312 300 285 264 286 304 306 303 306 302 296 310 316 300
220 232 297 87 132 223 230 196 230 190 234 226 232 251 252 141 260 276 306 143 278 250 178 240 209 230 130 128 160 205 243 256 272 284 294 302 303 301 299 305 320 305 296 297
322 295 250 236 214 215 236 216 200 206 241 193 226 172 221 138 249 262 163 250 247 255 185 232 256 88 128 168 189 271 296 297 298 296 297 300 300 300 319 311 297 286 299 304
248 218 249 216 170 206 225 195 201 187 231 202 187 191 223 167 234 204 234 239 217 243 231 220 360 117 118 93 315 292 301 284 295 301 301 301 326 325 307 300 290 308 310 307
240 196 238 221 197 230 214 242 352 93 161 267 235 141 273 200 243 221 253 191 218 222 229 233 100 83 55 17 316 294 297 309 306 311 308 337 321 304 300 292 318 315 294 300
203 207 239 225 256 298 282 303 277 166 232 215 237 181 238 211 230 216 256 227 224 241 259 87 118 73 28 341 321 321 317 317 319 318 336 320 320 307 312 330 314 307 310 299
232 239 247 233 227 235 250 215 238 167 204 234 247 210 252 213 231 198 221 255 221 68 82 99 121 57 355 334 325 324 320 322 317 329 319 316 315 326 326 324 320 313 300 289
211 238 253 270 275 256 312 281 159 195 232 227 205 237 214 216 218 229 215 279 14 21 74 102 67 349 326 330 328 325 318 322 327 322 322 326 317 337 320 318 320 315 309 296